Weather in Astradamovka

Russia / Ulyanovsk Oblast     54°32′47″N   47°08′18″E
temp.,
°C
wind,
m/s
gust,
m/s
humid.,
%
clouds,
%
prec.,
mm/h
press.,
hPa
HPBL,
m
18 april, sun
sun1801:00+7ene512571 0.0 1021281
04:00+5ene512650 0.0 1021261
07:00+5ne310670 0.0 1021255
10:00+9ene68476 0.0 1020560
13:00+13ene673678 0.0 10201053
16:00+13ene67347 0.0 10211390
19:00+11ene594494 0.0 1020596
22:00+8ene71469100 0.0 1022520
19 april, mon
mon1901:00+6ene7136899 0.0 1023518
04:00+3ene61262100 0.0 1024379
07:00+3ene71372100 0.0 1024480
10:00+4ene81155100 0.0 1025729
13:00+6e91155100 0.0 10251127
16:00+8e9115292 0.0 10241412
19:00+6e81162100 0.0 10251120
22:00+5e61265100 0.0 10261140
20 april, tue
tue2001:00+4e7136151 0.0 1026752
04:00+2e7146510 0.0 1027527
07:00+2e8156230 0.0 1027710
10:00+5ese10134448 0.0 1028884
13:00+8ese912393 0.0 10271172
16:00+9ese9113819 0.0 10261368
19:00+8ese8124177 0.0 10251139
22:00+6ese91641100 0.0 1024851
21 april, wed
wed2101:00+5ese91745100 0.0 1023745
04:00+4se91849100 0.0 1021762
07:00+2se102073100 2.4 1020715
10:00+2se102186100 3.5 1019764
13:00+2se101988100 1.2 1020756
16:00+2sse91790100 1.6 1020667
19:00+2sse91690100 0.0 1021535
22:00+2sse61393100 0.1 1022479
22 april, thu
thu2201:00+2sse51195100 0.1 1022402
04:00+3sse41196100 0.2 1022408
07:00+4sse51195100 0.1 1023419
10:00+5s51095100 0.1 1023387
13:00+8ssw5782100 0.0 1024755
16:00+11s677016 0.0 1024746
19:00+9sse698273 0.0 1025320
22:00+6sse499597 0.0 1026240